Regional Weather Roundup
Issued by NWS Memphis, TN

Home | Current Version | Previous Version | Text Only | Print | Product List | Glossary On
Versions: 1 2 3 4 5 6 7 8 9 10 11 12 13 14 15 16 17 18 19 20 21 22 23 24 25 26 27 28 29 30 31 32 33 34 35 36 37 38 39 40 41 42 43 44 45 46 47 48 49 50
000
ASUS44 KMEG 271410
RWRMEG
MEMPHIS CWA HOURLY WEATHER ROUNDUP
NATIONAL WEATHER SERVICE MEMPHIS TN
800 AM CST TUE JAN 27 2015

...WEST TENNESSEE...

CITY           SKY/WX    TMP DP  RH WIND       PRES   REMARKS
MEMPHIS INTL   CLEAR     45  36  70 N10       30.08R
NWS MEMPHIS      N/A     42 N/A N/A MISG        N/A
JACKSON        SUNNY     37  32  82 NW7       30.06R WCI  32
LEXINGTON      SUNNY     37  32  81 NW7       30.01R WCI  32
SAVANNAH       MOSUNNY   32  32 100 CALM      30.04R
DYERSBURG      CLEAR     37  25  60 N8        30.09R WCI  31
UNION CITY     CLEAR     34  34 100 N8        30.06R WCI  27
PARIS          MOSUNNY   30  28  93 N5        30.05R WCI  25


...EASTERN ARKANSAS...

CITY           SKY/WX    TMP DP  RH WIND       PRES   REMARKS
JONESBORO      CLEAR     40  35  83 NW6       30.10R
WEST MEMPHIS   CLEAR     45  37  73 N7        30.08R
BATESVILLE     CLEAR     45  34  65 NW5       30.12R
NEWPORT        CLEAR     41  35  79 W5        30.14R
WALNUT RIDGE   CLEAR     37  32  81 NW8       30.11R WCI  31
BLYTHEVILLE    CLEAR     37  34  89 N9        30.09R WCI  30
NW BLYTHEVILLE CLEAR     39  36  87 N7        30.08  WCI  34
SEARCY         CLEAR     34  33  96 N3        30.14R
STUTTGART      CLEAR     43  36  75 N7        30.13R
PINE BLUFF     CLEAR     39  36  89 CALM      30.12R
MONTICELLO     CLEAR     43  37  79 NW3       30.11R


...NORTH MISSISSIPPI...

CITY           SKY/WX    TMP DP  RH WIND       PRES   REMARKS
TUPELO         SUNNY     45  34  65 N7        30.05R
OXFORD         SUNNY     32  30  93 W3        30.09R
OLIVE BRANCH   CLEAR     39  39 100 N12       30.07R WCI  32
TUNICA         CLEAR     43  36  75 NW7       30.10R
CLARKSDALE     CLEAR     45  37  76 NW7       30.10R
CORINTH        PTSUNNY   32  30  93 N3        30.04R
GRENADA        SUNNY     34  34 100 CALM      30.09R
GREENWOOD      SUNNY     36  34  92 CALM      30.09R
COLUMBUS       SUNNY     39  35  85 NW2       30.05R
STARKVILLE     FAIR      43  36  75 W3        30.06R
GOLDEN TRIANGL SUNNY     43  36  75 NW5       30.04R


...SOUTHEAST MISSOURI...

CITY           SKY/WX    TMP DP  RH WIND       PRES   REMARKS
WEST PLAINS    CLEAR     40  32  73 N5        30.11R
POPLAR BLUFF   MOCLDY    35  30  82 CALM      30.10R
CAPE GIRARDEAU CLEAR     33  31  92 NW7       30.08R WCI  27


...NORTHWEST ALABAMA...

CITY           SKY/WX    TMP DP  RH WIND       PRES   REMARKS
MUSCLE SHOALS  PTSUNNY   37  32  82 NW5       30.03R WCI  33


...MIDDLE TENNESSEE...

CITY           SKY/WX    TMP DP  RH WIND       PRES   REMARKS
NASHVILLE      PTSUNNY   36  31  82 NW8       30.00R WCI  30
CLARKSVILLE    CLOUDY    36  32  85 NW10      30.02R WCI  28
COLUMBIA       SUNNY     37  37 100 NW5       29.98R WCI  34


...WESTERN KENTUCKY...

CITY           SKY/WX    TMP DP  RH WIND       PRES   REMARKS
PADUCAH        PTCLDY    35  31  85 NW6       30.06R WCI  30
FORT CAMPBELL  CLOUDY    35  31  87 NW6       30.02R WCI  30


...CENTRAL ARKANSAS...

CITY           SKY/WX    TMP DP  RH WIND       PRES   REMARKS
LITTLE ROCK    CLEAR     44  36  73 NW6       30.13R


SKY/WX REPORTED AS FAIR MEANS FEW OR NO CLOUDS BELOW
12 THOUSAND FEET.



USA.gov is the U.S. government's official web portal to all federal, state and local government web resources and services.